Theta_e
309 306 306 306 306 306 305 304 304 303 303 303 304 303 302 303 303 303 302 301 303 302 304 304 304 306 310 315 314 319 321 320 311 318 321 322 320 319 317 317 317 317 317 319 320 320 319
305 306 306 306 305 306 305 304 303 303 303 303 304 303 302 302 302 302 301 302 302 303 304 304 305 304 309 314 314 315 318 319 314 318 321 321 321 319 318 317 317 317 318 317 318 318 318
305 305 306 305 305 305 305 304 303 302 303 302 303 302 301 302 301 301 301 302 302 303 304 304 304 304 309 313 313 315 312 319 316 318 320 320 321 319 318 316 318 317 318 316 316 317 317
305 305 305 305 304 305 304 303 303 302 302 302 302 302 302 302 300 300 301 302 301 302 303 304 303 305 311 313 314 316 317 318 318 321 318 320 320 320 318 318 317 317 317 319 317 316 318
304 305 304 304 304 304 303 303 303 302 302 302 301 302 302 302 301 301 302 300 300 300 301 304 303 306 311 312 313 315 318 319 319 319 318 318 319 320 318 315 317 315 317 318 318 315 316
304 304 303 303 303 303 303 303 302 302 302 302 301 302 301 301 301 301 300 300 300 301 300 301 304 308 311 313 313 313 318 319 318 318 318 318 318 316 313 317 317 318 317 316 317 314 314
304 304 303 303 303 303 303 302 302 303 303 303 303 302 301 301 301 301 300 300 301 302 302 304 307 310 312 313 312 316 317 319 320 319 319 318 320 320 318 315 313 314 315 316 314 313 313
303 304 303 303 304 302 302 302 303 304 304 304 303 305 300 301 302 302 302 300 301 302 301 303 308 310 312 313 313 315 316 318 319 318 317 318 320 318 315 314 317 317 316 316 313 311 312
302 303 303 302 303 302 302 302 303 303 304 302 302 303 305 301 302 302 302 300 301 302 302 304 306 310 311 312 314 314 316 318 318 319 318 319 317 319 319 319 320 316 316 314 315 311 308
302 303 302 301 302 302 301 302 303 303 303 302 302 302 304 301 303 302 301 302 302 303 303 305 309 312 313 312 313 314 316 316 317 318 317 316 317 318 319 320 316 316 311 312 311 311 313
301 303 302 301 301 300 302 303 303 303 303 302 302 303 303 302 302 301 301 302 301 303 309 308 312 312 312 312 313 314 315 315 317 315 316 315 317 318 319 317 314 314 309 309 308 308 308
300 301 299 300 299 301 302 302 302 303 303 301 301 302 302 302 301 302 301 302 303 299 308 311 311 313 312 313 313 313 313 315 315 314 312 311 311 313 314 311 312 309 308 305 304 305 304
296 300 296 299 298 299 302 302 302 302 303 302 301 301 301 301 301 301 302 303 301 308 308 312 314 312 312 314 314 314 314 313 317 316 315 313 311 309 310 310 308 308 310 306 304 301 306
298 300 295 298 293 294 297 302 303 302 302 301 302 303 303 302 302 303 303 303 305 311 313 312 311 311 313 312 314 313 313 313 309 312 313 313 316 311 309 310 311 309 308 305 306 305 307
296 299 296 296 292 292 295 302 303 302 302 302 303 304 304 303 303 303 303 307 306 309 312 313 311 313 313 312 314 313 312 311 310 308 309 307 310 309 308 309 309 309 305 305 304 301 301
296 299 295 294 292 292 293 299 304 304 304 303 303 303 305 305 305 304 302 311 309 308 309 307 309 310 311 313 312 313 311 311 310 308 307 308 310 309 309 308 307 308 306 307 300 302 306
296 296 297 294 293 292 292 296 304 304 304 304 304 304 307 306 306 306 305 309 311 310 310 308 309 309 309 310 310 311 310 308 309 308 307 306 307 310 309 309 309 308 306 304 303 303 304
298 297 296 296 294 292 292 292 301 305 304 305 306 300 307 308 304 307 310 309 309 310 311 309 306 307 308 308 308 309 309 308 308 307 309 308 306 303 310 307 306 307 307 304 302 302 301
300 299 298 298 296 294 293 292 292 304 305 305 304 305 307 308 304 307 306 308 308 310 310 309 308 307 307 307 309 308 308 307 308 307 308 307 304 302 308 308 307 308 307 305 303 301 299
300 297 301 299 298 296 293 293 292 298 305 305 305 300 306 308 306 307 308 308 310 310 310 307 307 307 308 308 307 308 308 308 307 308 309 308 304 304 305 305 305 306 307 305 305 299 305
301 298 299 301 300 297 294 293 292 294 304 304 304 302 303 304 304 303 305 308 310 311 310 308 308 308 308 309 310 309 308 308 309 311 309 307 303 303 306 306 306 307 308 307 304 305 305
301 301 297 300 299 299 295 293 292 291 302 304 303 303 304 304 303 304 304 309 310 310 310 310 307 309 309 308 308 309 308 308 309 308 307 305 307 307 302 306 306 307 307 307 307 308 307
300 300 297 299 299 299 297 295 294 291 293 302 301 302 302 305 301 304 305 307 309 310 310 310 309 310 312 312 311 309 308 308 308 307 307 307 305 302 303 306 307 309 307 307 308 307 308
299 299 298 299 300 298 297 298 296 296 292 294 298 301 302 303 301 304 305 306 308 309 310 311 311 311 312 311 311 310 307 307 307 306 306 306 306 306 301 306 309 309 307 307 308 308 307
298 298 298 297 298 298 299 296 296 295 295 293 292 299 301 302 303 302 304 305 308 310 310 311 311 312 312 311 309 310 312 311 310 308 309 308 310 307 305 312 308 311 309 309 311 314 308
297 298 298 298 297 299 299 298 295 296 296 295 293 291 296 300 299 303 303 304 305 306 307 311 312 312 312 308 310 312 311 309 312 312 309 310 309 307 311 313 311 309 314 313 312 315 312
298 298 297 298 296 297 299 299 297 296 296 294 294 294 292 295 297 300 303 304 306 305 304 307 311 310 311 308 311 310 307 308 311 312 311 313 313 313 312 311 310 307 309 313 317 313 312
298 298 297 298 296 296 297 299 299 297 295 295 295 295 294 293 292 292 295 300 300 304 306 307 308 308 306 308 309 308 307 307 309 310 311 311 311 312 312 312 312 310 312 315 312 311 311
298 297 297 297 298 297 296 297 299 298 296 295 296 296 295 294 294 295 295 294 293 293 296 302 307 306 308 305 304 305 309 306 306 310 307 311 308 310 308 309 308 309 312 312 311 312 311
Wind_Speed
21 25 25 28 28 25 28 28 29 29 26 24 25 24 22 19 18 16 17 16 17 15 15 17 17 13 11 9 20 5 3 7 28 29 27 23 20 13 6 8 6 4 3 12 13 10 7
24 25 27 27 28 27 30 29 29 29 26 23 23 23 21 19 18 16 15 14 15 13 15 15 14 12 14 8 14 23 4 11 29 33 30 26 16 11 10 7 5 8 9 9 6 9 5
24 24 26 29 30 29 31 31 30 29 26 26 22 23 20 17 17 14 15 14 15 15 14 14 12 11 18 15 9 17 15 10 30 34 34 28 15 10 8 4 12 5 2 1 7 5 5
24 25 26 30 28 33 32 32 32 28 26 26 25 21 19 18 16 15 16 17 17 14 12 11 8 12 10 12 16 10 11 15 28 27 32 28 13 12 4 6 4 6 3 2 3 7 5
24 26 27 29 31 32 32 32 31 30 26 26 24 23 19 19 17 15 17 18 15 15 12 9 9 10 7 5 19 9 7 22 25 22 23 24 16 7 4 6 4 2 4 4 5 5 2
23 26 28 31 31 31 31 31 32 32 32 30 28 23 20 17 16 14 17 15 11 6 3 3 8 5 6 8 15 14 11 18 24 23 19 19 9 4 2 4 7 6 3 2 4 2 2
24 25 28 29 31 29 30 32 31 31 30 30 28 22 16 12 8 9 9 9 2 3 6 3 2 4 6 11 20 16 12 19 14 24 7 15 4 14 12 6 4 5 4 4 3 2 2
25 26 29 29 29 30 30 29 31 36 36 33 30 29 18 13 10 9 10 4 1 1 4 9 4 10 5 16 8 14 13 7 4 12 6 5 7 6 8 8 6 5 4 3 4 1 1
23 25 27 32 30 28 30 29 33 34 33 34 32 21 18 9 10 8 8 3 3 3 1 1 7 8 9 15 8 7 10 5 3 4 11 5 4 4 12 9 7 2 4 2 3 4 2
23 24 28 29 27 28 29 29 31 33 35 37 29 21 9 6 4 4 4 3 4 1 4 3 4 1 14 9 5 12 8 2 3 6 12 5 2 6 7 5 4 2 2 2 2 2 2
23 24 27 28 28 27 28 29 28 30 34 31 29 18 10 7 2 2 4 4 3 2 4 2 3 6 14 5 16 4 4 7 5 6 1 3 8 5 8 5 5 3 4 4 2 3 3
22 24 28 28 27 28 29 28 23 26 29 28 25 16 9 8 7 6 6 5 3 4 5 4 3 7 7 4 4 8 3 8 8 10 6 4 7 4 4 4 1 9 5 5 4 2 2
24 23 28 27 28 27 28 26 24 23 25 23 22 21 13 13 15 13 7 4 5 5 2 1 6 5 7 4 5 4 2 4 3 4 4 4 2 1 4 7 4 4 5 2 4 3 4
22 22 27 26 31 27 27 26 23 22 18 17 17 16 15 14 11 7 8 4 8 3 6 5 6 12 6 6 5 3 3 3 5 4 3 3 2 2 2 3 5 2 5 4 4 1 3
22 22 26 27 31 30 26 25 20 18 17 13 9 13 15 13 11 11 6 5 0 2 4 8 8 7 5 6 4 4 4 2 2 2 5 4 3 2 3 2 3 3 2 2 5 2 2
21 21 25 27 29 31 27 26 20 16 16 14 13 12 17 17 12 8 2 3 2 3 3 5 4 2 3 2 2 2 3 1 4 2 2 2 4 2 2 4 7 2 6 2 3 2 2
20 21 24 26 28 29 31 25 25 17 16 16 9 4 17 16 9 6 3 3 1 3 4 3 2 3 4 4 3 4 4 1 2 3 6 3 3 1 3 2 6 2 1 4 4 3 3
22 20 24 26 28 28 29 28 24 22 16 16 6 3 14 11 6 3 2 5 6 4 3 3 4 3 3 2 2 2 7 2 6 8 5 2 4 2 2 1 1 2 5 5 4 4 1
20 22 20 23 31 29 27 28 25 21 19 17 6 4 10 9 3 3 5 3 2 3 3 0 2 1 2 4 3 2 3 1 9 4 6 5 1 3 4 3 2 3 4 4 4 3 5
18 19 22 23 25 31 27 25 26 21 13 11 5 3 5 8 5 2 5 4 4 4 2 3 3 3 3 2 4 4 2 4 9 8 7 5 3 4 5 5 4 2 4 5 5 3 3
17 19 19 23 24 29 28 24 23 22 12 7 6 2 2 3 1 2 2 2 3 4 4 1 2 3 4 3 2 3 2 2 4 2 4 4 3 1 4 4 3 4 4 8 8 6 6
17 21 18 20 23 26 27 22 22 22 13 5 4 4 4 4 6 0 3 3 4 4 2 2 5 3 3 4 5 7 5 3 3 2 4 1 3 1 4 3 4 5 9 9 11 11 12
17 19 18 17 21 24 26 21 22 21 17 8 6 3 2 3 4 1 2 2 3 4 3 4 4 3 3 1 2 6 4 9 5 7 3 4 5 2 4 3 5 5 8 12 7 6 9
18 20 19 13 19 22 23 16 19 20 18 11 8 4 3 3 1 2 4 5 2 4 2 3 4 3 3 7 10 11 9 8 8 3 5 5 4 3 2 4 1 3 4 6 11 5 11
17 20 19 12 16 18 20 12 16 16 16 15 8 4 3 3 5 7 5 4 8 1 1 0 2 3 7 3 3 3 2 1 2 2 3 3 4 2 2 2 6 3 3 6 5 3 9
20 19 18 13 14 16 17 20 12 15 13 14 9 8 2 3 3 4 5 7 3 2 2 2 4 6 4 2 2 3 4 4 3 2 3 4 4 3 2 2 3 4 0 4 3 1 2
20 18 20 16 12 12 15 16 16 11 13 13 10 11 4 3 4 3 3 4 5 3 2 2 5 5 5 2 2 3 3 4 5 6 5 4 2 5 4 3 6 6 4 4 1 3 4
22 21 19 17 14 14 11 13 17 12 12 13 12 10 8 5 19 17 12 9 8 6 2 3 3 1 2 3 3 3 3 5 2 3 6 7 7 4 5 4 7 6 6 4 3 6 9
19 20 18 12 15 13 8 12 14 13 16 14 14 12 12 15 17 24 29 32 28 25 11 6 4 5 8 3 1 2 2 2 3 3 1 4 6 4 7 5 4 3 4 8 14 14 7
Wind_Direction
335 335 338 337 336 331 328 330 328 326 325 328 324 315 314 311 309 307 300 294 289 289 284 288 289 280 293 227 224 125 135 202 181 186 189 183 165 167 168 168 140 173 186 216 237 258 264
330 341 339 335 331 330 328 326 331 326 322 322 319 321 323 316 315 310 304 301 297 290 286 287 290 264 272 253 255 242 265 195 191 184 189 189 178 167 168 184 166 187 206 240 263 254 255
340 340 340 333 336 329 331 330 330 326 323 323 318 317 317 318 318 313 307 302 300 297 288 285 286 246 273 241 221 242 233 216 185 185 188 184 173 169 153 125 191 140 106 262 249 223 235
341 340 340 337 337 331 333 331 330 331 324 321 319 314 310 312 313 305 305 306 299 293 290 286 281 231 258 231 228 216 199 196 184 187 191 179 172 179 164 132 80 121 79 196 286 171 227
343 340 339 340 340 334 336 335 335 330 325 319 321 313 306 305 305 306 308 312 310 295 273 266 259 203 238 226 206 215 200 188 182 176 181 180 179 187 144 121 104 63 175 194 307 200 194
343 343 345 346 342 341 343 340 335 333 331 326 318 315 313 300 293 295 310 317 317 308 220 228 208 250 215 192 194 220 177 173 166 159 150 169 179 130 106 181 186 162 181 214 208 211 140
346 345 345 347 344 345 345 340 342 335 327 320 315 307 302 311 309 299 324 340 308 57 168 175 226 231 150 146 185 185 154 157 167 167 149 164 162 195 186 159 149 130 130 191 239 295 294
350 346 346 348 344 346 346 348 344 340 334 330 323 303 269 286 297 297 311 328 312 287 309 235 334 228 214 144 145 170 173 129 134 130 95 126 197 175 147 138 122 121 125 233 282 294 309
351 351 348 349 347 349 348 348 346 346 344 342 338 332 285 249 295 292 306 292 234 266 208 175 324 274 153 139 110 159 175 94 87 106 138 121 165 121 157 163 167 122 155 188 239 340 46
353 353 351 351 348 351 354 355 349 354 354 353 351 346 302 199 276 306 185 192 202 204 75 271 190 85 138 160 70 140 146 92 101 95 107 86 230 149 125 157 128 113 165 113 63 48 266
354 354 351 355 347 352 357 356 354 358 2 6 15 22 93 149 123 119 138 113 193 276 94 343 359 121 123 96 134 112 100 44 100 98 186 89 117 127 153 145 155 186 104 101 81 80 17
354 355 356 355 352 355 358 1 359 2 7 11 22 26 50 104 94 123 123 127 190 45 46 8 32 103 81 45 50 111 121 100 66 59 61 112 122 146 150 120 249 145 88 57 55 74 16
354 357 1 359 359 357 358 4 9 8 9 15 35 45 67 77 96 101 104 332 24 57 278 54 107 96 97 82 82 78 54 54 93 115 57 38 32 98 116 92 45 86 75 331 359 15 219
357 357 3 359 7 2 4 7 6 9 7 17 30 48 58 63 75 39 346 36 56 15 73 123 95 70 64 31 50 65 85 109 45 89 113 139 139 61 7 107 161 105 143 163 208 185 275
356 354 2 1 4 7 2 5 13 13 0 358 8 3 18 25 7 348 346 55 360 332 90 130 75 56 42 28 76 76 2 95 113 75 115 113 49 31 45 97 94 189 112 178 111 72 46
357 352 2 1 2 6 1 1 4 6 4 340 329 331 2 354 331 337 82 79 30 211 48 61 91 188 120 113 102 115 176 189 112 83 97 162 92 11 82 95 41 125 140 83 4 114 284
354 357 358 4 1 2 3 359 355 359 358 353 351 349 3 356 13 53 68 17 305 11 43 96 147 106 122 135 125 150 178 282 100 115 65 116 97 10 101 188 170 135 111 59 107 98 163
351 359 357 3 1 359 359 2 354 350 350 1 16 29 2 13 45 21 25 334 342 326 354 58 95 97 109 94 80 108 193 226 165 142 122 73 112 138 191 357 230 159 169 138 119 228 87
344 347 354 356 1 354 355 358 358 352 348 1 357 337 14 32 68 356 324 295 267 320 353 16 100 102 132 145 127 164 200 99 152 138 151 173 22 56 355 359 10 203 187 138 121 90 201
344 350 346 350 353 350 348 353 1 354 349 352 358 15 20 63 78 22 9 338 335 321 315 76 103 88 110 97 36 176 115 2 196 177 133 119 123 156 190 203 145 185 181 173 136 130 198
344 344 342 343 346 348 344 348 358 360 354 357 24 66 359 323 346 15 254 289 327 3 349 62 94 166 130 108 92 126 130 99 76 201 100 127 128 102 261 236 184 207 187 187 200 187 183
337 342 338 338 346 341 343 345 353 5 5 36 51 17 348 283 289 304 0 14 353 328 8 358 123 106 38 159 184 193 142 158 171 65 124 62 124 56 302 328 220 240 222 207 214 230 250
330 334 334 335 338 337 340 349 354 7 14 53 48 28 10 309 323 327 205 280 304 338 41 50 109 89 82 327 257 228 143 161 169 146 136 124 142 117 275 313 305 276 221 197 196 207 207
322 327 330 326 328 332 337 349 355 1 18 26 27 13 338 285 325 292 339 326 272 318 293 14 104 118 146 118 91 89 85 94 114 91 141 138 116 135 248 351 319 236 152 181 202 215 211
327 330 330 317 323 329 340 345 350 357 359 11 16 37 22 298 311 312 339 291 298 257 136 139 43 131 149 133 65 49 46 108 187 143 154 152 126 135 124 240 287 285 164 150 173 275 204
335 325 323 312 308 329 341 353 356 350 347 354 4 10 3 316 276 310 311 311 299 290 321 188 149 154 156 91 112 172 197 185 183 116 50 88 107 124 199 246 244 254 75 166 152 317 184
326 317 317 308 296 312 333 335 356 345 331 331 333 341 341 282 282 312 278 300 312 304 258 268 174 162 170 122 143 188 234 174 174 178 174 148 160 207 217 263 285 245 218 143 114 225 307
319 314 319 307 290 274 308 328 328 345 332 313 310 312 315 268 277 272 254 254 283 271 269 336 110 240 79 156 173 210 188 218 168 165 173 172 177 190 192 219 261 166 106 174 216 318 311
305 313 319 316 316 301 295 306 313 325 336 311 295 303 283 245 262 281 279 270 263 260 276 285 289 195 187 114 200 124 179 151 174 223 217 203 184 183 185 212 242 214 237 296 297 299 310